[[{"header":{"parameterUnit":"m.s-1","parameterCategory":1,"la1":30.2991,"la2":30.254,"lo1":-89.0895,"lo2":-89.0444,"dy":0.0017,"dx":0.0017,"nx":28,"ny":28,"refTime":"2025-03-05T09:00:00:Z","depth":0,"parameterNumber":2,"parameterNumberName":"U-component_of_WINDS"},"data":[0,0,0,0,0,0,0,0,0,0,0,0,0,0,0,0,0,0,0,0,0,0,0,0,0,0,0,0,0,0,0,0,0,0,0,0,0,0,0,0,0,0,0,0,0,0,0,0,0,0,0,0,0,0,0,0,0,0,4.25,4.2501,0,4.2631,4.2633,4.2634,4.2585,4.2582,4.2579,4.2576,4.2712,4.2718,4.2725,0,0,0,0,0,0,0,0,0,0,0,0,0,4.2208,4.2214,4.2499,4.2501,4.2503,4.2631,4.2633,4.2634,4.2585,4.2582,4.2578,4.2574,4.271,4.2717,4.2725,0,0,0,0,0,0,0,0,0,0,0,0,0,4.2337,4.2216,4.2499,4.2494,4.2494,4.2631,4.2633,4.2635,4.2586,4.2581,4.2577,4.2573,4.2707,4.2717,4.2726,4.2876,0,0,4.2756,4.276,0,0,0,0,0,0,0,0,4.233,4.2348,4.2493,4.2494,4.2495,4.2587,4.258,4.2716,4.2587,4.2551,4.2576,4.257,4.2674,4.2686,4.2721,4.2882,4.2888,4.2757,4.2762,4.2767,4.2769,0,0,0,0,0,0,0,4.2321,4.2342,4.2552,4.2495,4.2497,4.2485,4.2499,4.2605,4.2636,4.2554,4.2551,4.2567,4.2674,4.2712,4.2724,4.289,4.2756,4.2765,4.2771,4.2775,4.3184,4.3189,0,0,0,0,0,0,4.2311,4.2335,4.2547,4.2555,4.24,4.2494,4.2509,4.2562,4.2635,4.2642,4.2571,4.2564,4.2697,4.2712,4.2728,4.291,4.2766,4.2775,4.2781,4.3179,4.3185,4.3191,0,0,0,0,0,0,4.2305,4.233,4.2542,4.2444,4.247,4.2504,4.2564,4.2567,4.2605,4.2648,4.2653,4.2603,4.2694,4.2715,4.284,4.2914,4.278,4.2789,4.3173,4.3181,4.3188,4.3274,0,0,0,0,0,0,4.2297,4.2329,4.2385,4.2446,4.2476,4.2651,4.2568,4.2573,4.2621,4.2614,4.268,4.2686,4.2692,4.2826,4.285,4.2925,4.2796,4.3166,4.3176,4.3185,4.3265,4.3283,4.33,0,0,0,0,0,4.2287,4.2404,4.2388,4.2414,4.2547,4.2656,4.2673,4.2677,4.2627,4.2685,4.2713,4.2684,4.2902,4.2839,4.2866,4.2945,4.3162,4.3174,4.3185,4.3257,4.328,4.3299,0,0,0,0,0,0,4.2351,4.2412,4.2395,4.2535,4.2591,4.2647,4.272,4.2701,4.2772,4.2762,4.2765,4.278,4.291,4.2939,4.2869,4.3095,4.3025,4.3042,4.307,4.3093,4.311,4.31,4.2804,0,0,0,0,0,4.2382,4.2464,4.2513,4.2632,4.2661,4.2686,4.2733,4.2732,4.2789,4.2812,4.2849,4.2907,4.2989,4.3042,4.3119,4.3269,4.3283,4.3336,4.3354,4.3368,4.3383,4.3466,4.3491,4.3228,4.3228,4.3228,0,0,4.2446,4.2489,4.2541,4.2646,4.2689,4.2775,4.2706,4.2799,4.2864,4.2827,4.2948,4.2977,4.3042,4.318,4.3243,4.3209,4.3459,4.3383,4.3394,4.3401,4.348,4.3505,4.3527,4.3236,4.3235,4.3233,0,0,4.2606,4.2647,4.2751,4.2796,4.2862,4.2878,4.2903,4.2963,4.2981,4.3102,4.3077,4.3154,4.3294,4.3342,4.3384,4.3565,4.3542,4.359,4.3682,4.3763,4.3784,4.3802,4.3868,4.3892,4.3605,4.3605,4.3606,0,4.2678,4.2806,4.2808,4.2904,4.2952,4.2923,4.303,4.3073,4.3161,4.3195,4.3155,4.3332,4.3373,4.3523,4.3568,4.3603,4.3633,4.3583,4.3781,4.3799,4.3816,4.3879,4.3904,4.3611,4.361,4.361,4.3609,0,4.2891,4.2981,4.3057,4.3143,4.32,4.3301,4.3319,4.3376,4.3371,4.3391,4.3517,4.3565,4.3653,4.3688,4.3683,4.3839,4.3816,4.3779,4.3709,4.3847,4.3906,4.393,4.3619,4.3617,4.3615,4.3614,0,0,4.3095,4.3182,4.321,4.3249,4.3321,4.339,4.3491,4.3576,4.3626,4.3688,4.3774,4.3894,4.3861,4.3909,4.3909,4.398,4.4123,4.3935,4.3936,4.3969,4.4299,4.4327,4.4354,4.4108,4.4112,4.4116,4.4294,0,4.3263,4.3439,4.3444,4.3606,4.3689,4.3664,4.3752,4.3806,4.3828,4.3903,4.3928,4.4014,4.3963,4.3992,4.4061,4.4091,4.4189,4.4078,4.4188,4.4192,4.4174,4.4385,4.4415,4.458,4.4317,4.4321,4.4324,0,4.3481,4.355,4.372,4.3781,4.3816,4.3895,4.3975,4.4047,4.4108,4.4119,4.4175,4.4165,4.427,4.4196,4.4341,4.4265,4.4311,4.4332,4.4339,4.435,4.4267,4.4403,4.4633,4.4658,4.436,4.4357,4.4354,0,4.3614,4.375,4.387,4.3904,4.3978,4.4034,4.4067,4.4124,4.4176,4.4246,4.428,4.4361,4.4406,4.447,4.4483,4.4428,4.4629,4.4556,4.4643,4.4643,4.4686,4.4683,4.4928,4.4715,4.4714,4.4714,4.4713,0,4.3801,4.3906,4.3931,4.4005,4.4122,4.4128,4.4245,4.4274,4.4326,4.4406,4.4388,4.4464,4.4476,4.4555,4.4567,4.4686,4.4706,4.4719,4.4721,4.4721,4.472,4.4751,4.474,4.472,4.4719,4.4718,4.4717,0,4.397,4.399,4.4119,4.4179,4.4196,4.4281,4.4332,4.4403,4.4424,4.4526,4.455,4.4584,4.4676,4.4696,4.4805,4.4812,4.4954,4.4944,4.4934,4.4933,4.5019,4.5011,4.5293,4.5331,4.5092,4.5094,4.5096,0,4.4088,4.4168,4.4237,4.4289,4.4325,4.4409,4.4462,4.4472,4.4528,4.4605,4.4667,4.4757,4.483,4.4979,4.5014,4.5098,4.509,4.5183,4.5103,4.5101,4.5093,4.5088,4.5097,4.5199,4.5201,4.5203,4.5205,0,4.4295,4.4302,4.4378,4.446,4.4523,4.4587,4.4649,4.4693,4.4711,4.4775,4.4869,4.4925,4.5037,4.5128,4.5212,4.5248,4.5231,4.523,4.5255,4.5256,4.5247,4.5254,4.4977,4.5224,4.5222,4.522,4.5219,4.5219,4.4443,4.4514,4.4574,4.466,4.4707,4.4765,4.4836,4.4866,4.4944,4.5036,4.5037,4.5141,4.5202,4.5313,4.5354,4.5436,4.5407,4.5442,4.5451,4.546,4.5469,4.5234,4.5451,4.5451,4.545,4.545,4.5449,0,4.4651,4.4688,4.4767,4.4854,4.4923,4.49,4.4967,4.5026,4.5117,4.5175,4.5247,4.5356,4.5444,4.5487,4.5574,4.5632,4.5626,4.5654,4.565,4.5659,4.5489,4.5459,4.5657,4.5657,4.5657,4.5657,4.5657,4.5657,4.4767,4.4886,4.49,4.5043,4.508,4.5181,4.5221,4.5276,4.5322,4.5445,4.5518,4.5545,4.5597,4.5689,4.5769,4.5779,4.5813,4.5845,4.5852,4.5692,4.5671,4.5651,4.5623,4.5852,4.5853,4.6015,4.6017,4.6018]},{"header":{"parameterUnit":"m.s-1","parameterCategory":1,"la1":30.2991,"la2":30.254,"lo1":-89.0895,"lo2":-89.0444,"dy":0.0017,"dx":0.0017,"nx":28,"ny":28,"refTime":"2025-03-05T09:00:00:Z","depth":0,"parameterNumber":3,"parameterNumberName":"V-component_of_WINDS"},"data":[0,0,0,0,0,0,0,0,0,0,0,0,0,0,0,0,0,0,0,0,0,0,0,0,0,0,0,0,0,0,0,0,0,0,0,0,0,0,0,0,0,0,0,0,0,0,0,0,0,0,0,0,0,0,0,0,0,0,-5.0347,-5.0349,0,-5.0561,-5.0563,-5.0566,-5.0544,-5.054,-5.0537,-5.0534,-5.0756,-5.0765,-5.0774,0,0,0,0,0,0,0,0,0,0,0,0,0,-4.9923,-4.9931,-5.0347,-5.0349,-5.0352,-5.056,-5.0563,-5.0566,-5.0544,-5.054,-5.0536,-5.0532,-5.0753,-5.0764,-5.0775,0,0,0,0,0,0,0,0,0,0,0,0,0,-5.0119,-4.9934,-5.0346,-5.0366,-5.037,-5.056,-5.0563,-5.0567,-5.0545,-5.054,-5.0535,-5.053,-5.075,-5.0763,-5.0776,-5.0961,0,0,-5.0818,-5.0824,0,0,0,0,0,0,0,0,-5.0108,-5.0135,-5.0361,-5.0365,-5.037,-5.052,-5.0495,-5.0699,-5.0547,-5.0479,-5.0534,-5.0528,-5.0682,-5.0701,-5.0752,-5.0971,-5.0981,-5.0819,-5.0827,-5.0833,-5.0837,0,0,0,0,0,0,0,-5.0094,-5.0125,-5.0431,-5.0364,-5.037,-5.0366,-5.0388,-5.0534,-5.0606,-5.0484,-5.0483,-5.0509,-5.0684,-5.0739,-5.0757,-5.0984,-5.0819,-5.0831,-5.0839,-5.0844,-5.1367,-5.1373,0,0,0,0,0,0,-5.0076,-5.0114,-5.0425,-5.0438,-5.0224,-5.0377,-5.0402,-5.0477,-5.0604,-5.0619,-5.0513,-5.0507,-5.0718,-5.0741,-5.0765,-5.0991,-5.0833,-5.0846,-5.0853,-5.1362,-5.1369,-5.1375,0,0,0,0,0,0,-5.0067,-5.0103,-5.0416,-5.0276,-5.0315,-5.039,-5.0474,-5.0484,-5.0539,-5.0626,-5.0639,-5.0556,-5.0715,-5.0746,-5.0913,-5.0998,-5.0852,-5.0864,-5.1355,-5.1364,-5.1372,-5.1444,0,0,0,0,0,0,-5.0054,-5.01,-5.017,-5.0278,-5.0323,-5.0559,-5.048,-5.0492,-5.0563,-5.0557,-5.067,-5.0684,-5.0714,-5.0892,-5.0926,-5.1014,-5.0875,-5.1348,-5.1359,-5.1369,-5.1434,-5.1454,-5.1471,0,0,0,0,0,-5.0039,-5.0182,-5.0174,-5.0212,-5.0412,-5.0564,-5.059,-5.0621,-5.0569,-5.0641,-5.0697,-5.068,-5.0983,-5.091,-5.0947,-5.1041,-5.1342,-5.1356,-5.1368,-5.1426,-5.145,-5.147,0,0,0,0,0,0,-5.0084,-5.0197,-5.0189,-5.037,-5.0458,-5.056,-5.0651,-5.0645,-5.0749,-5.074,-5.0774,-5.08,-5.0968,-5.1021,-5.0937,-5.1227,-5.1156,-5.1177,-5.1187,-5.1211,-5.1228,-5.1213,-5.0886,0,0,0,0,0,-5.0115,-5.0228,-5.0321,-5.0472,-5.0516,-5.0576,-5.0644,-5.066,-5.0752,-5.0789,-5.0857,-5.0949,-5.1064,-5.114,-5.1251,-5.1441,-5.1467,-5.1524,-5.1542,-5.1557,-5.1576,-5.1682,-5.1709,-5.1418,-5.1417,-5.1417,0,0,-5.018,-5.0256,-5.0325,-5.0483,-5.0553,-5.0671,-5.0608,-5.0735,-5.0823,-5.0809,-5.0971,-5.1024,-5.1128,-5.1308,-5.139,-5.1357,-5.1662,-5.1574,-5.1585,-5.1595,-5.1698,-5.1726,-5.175,-5.1426,-5.1425,-5.1423,0,0,-5.036,-5.0427,-5.0562,-5.0633,-5.0739,-5.0778,-5.081,-5.0914,-5.0949,-5.1111,-5.1103,-5.1209,-5.1408,-5.1483,-5.1547,-5.1756,-5.1745,-5.1791,-5.1888,-5.1991,-5.2014,-5.2034,-5.2111,-5.2138,-5.1809,-5.1809,-5.1809,0,-5.0428,-5.0604,-5.0632,-5.0761,-5.0831,-5.0823,-5.096,-5.1028,-5.1165,-5.1215,-5.1175,-5.1425,-5.1494,-5.1693,-5.1744,-5.1795,-5.1835,-5.1779,-5.2008,-5.2029,-5.2049,-5.2122,-5.2151,-5.1814,-5.1814,-5.1813,-5.1813,0,-5.0684,-5.0806,-5.0902,-5.1035,-5.1116,-5.1248,-5.1297,-5.1376,-5.1385,-5.1429,-5.1596,-5.1679,-5.1808,-5.1855,-5.1865,-5.2056,-5.2032,-5.2,-5.1929,-5.2081,-5.2151,-5.2179,-5.1821,-5.182,-5.1818,-5.1817,0,0,-5.0899,-5.1044,-5.108,-5.114,-5.1256,-5.1353,-5.1485,-5.161,-5.1678,-5.1773,-5.1887,-5.2055,-5.2027,-5.2099,-5.2118,-5.2208,-5.2371,-5.2165,-5.2168,-5.2203,-5.2589,-5.2613,-5.2645,-5.2364,-5.2369,-5.2374,-5.258,0,-5.1092,-5.1325,-5.1354,-5.1563,-5.1678,-5.1671,-5.1787,-5.1872,-5.1917,-5.2021,-5.2071,-5.219,-5.2142,-5.2187,-5.2276,-5.2332,-5.2449,-5.2317,-5.2472,-5.2477,-5.2448,-5.2682,-5.2708,-5.2899,-5.2608,-5.2612,-5.2616,0,-5.1348,-5.145,-5.1669,-5.1771,-5.182,-5.1924,-5.2042,-5.2141,-5.2238,-5.2264,-5.2346,-5.2353,-5.2492,-5.2414,-5.2607,-5.2517,-5.2582,-5.2619,-5.2628,-5.2645,-5.2557,-5.2707,-5.2961,-5.299,-5.2658,-5.2655,-5.2652,0,-5.1485,-5.1677,-5.1834,-5.1885,-5.2007,-5.2081,-5.2135,-5.2227,-5.23,-5.2404,-5.2452,-5.257,-5.2636,-5.2728,-5.2768,-5.2707,-5.296,-5.2884,-5.2987,-5.2986,-5.3042,-5.3038,-5.3312,-5.308,-5.308,-5.3079,-5.3079,0,-5.1699,-5.1834,-5.1897,-5.1994,-5.2146,-5.2178,-5.2328,-5.238,-5.2461,-5.2569,-5.2571,-5.2672,-5.2717,-5.2826,-5.2858,-5.3015,-5.3044,-5.307,-5.3078,-5.3072,-5.3069,-5.3116,-5.3105,-5.3087,-5.3085,-5.3084,-5.3082,0,-5.1878,-5.1926,-5.2097,-5.2198,-5.2227,-5.2334,-5.2422,-5.2517,-5.2559,-5.2696,-5.273,-5.2799,-5.2927,-5.2975,-5.3132,-5.3154,-5.3335,-5.3331,-5.3303,-5.3305,-5.3406,-5.3397,-5.3721,-5.3767,-5.3503,-5.3505,-5.3507,0,-5.2013,-5.2116,-5.2229,-5.2301,-5.2357,-5.2473,-5.2548,-5.2584,-5.2663,-5.2781,-5.2862,-5.299,-5.3094,-5.33,-5.3365,-5.3485,-5.3485,-5.3591,-5.3503,-5.3495,-5.349,-5.3484,-5.3496,-5.3607,-5.361,-5.3612,-5.3614,0,-5.2246,-5.2265,-5.2372,-5.2489,-5.2579,-5.2672,-5.2764,-5.2823,-5.2873,-5.2961,-5.3092,-5.3173,-5.3333,-5.3461,-5.3585,-5.3642,-5.3638,-5.3641,-5.3671,-5.3667,-5.3648,-5.3662,-5.3349,-5.3634,-5.3632,-5.363,-5.3629,-5.3628,-5.2409,-5.2502,-5.2596,-5.2716,-5.2788,-5.2874,-5.2968,-5.3022,-5.3132,-5.3265,-5.3279,-5.3421,-5.3516,-5.3682,-5.3745,-5.3857,-5.3829,-5.3873,-5.3884,-5.3895,-5.3904,-5.3628,-5.388,-5.3879,-5.3879,-5.3878,-5.3878,0,-5.2645,-5.2705,-5.2815,-5.2942,-5.3038,-5.3023,-5.3124,-5.3205,-5.3329,-5.3418,-5.352,-5.3672,-5.3796,-5.387,-5.3995,-5.4071,-5.4072,-5.4103,-5.4099,-5.4112,-5.392,-5.3883,-5.4099,-5.4099,-5.4099,-5.4099,-5.4099,-5.4099,-5.2779,-5.2936,-5.2965,-5.3158,-5.3218,-5.3355,-5.3414,-5.3494,-5.3565,-5.3734,-5.3836,-5.3883,-5.3968,-5.4099,-5.4212,-5.4231,-5.4278,-5.4312,-5.4329,-5.4148,-5.4126,-5.4104,-5.4069,-5.4321,-5.4321,-5.4512,-5.4513,-5.4515]}]]